Overview Statistics Trail Chart Weather Telemetry Raw packets
 

This is the latest recevied weather packets stored in our database for station/object KB7STN. If no packets are shown the sender has not sent any weather packets the latest 10 day(s).

<< 94 95 96 97 98 99 100 >>
Time Temp. Humidity Pressure Rain* Wind** Luminosity Snow
1787999198 16.11° C 90% 1020.6 hPa 0.25 mm - - -
1787998898 16.11° C 90% 1020.6 hPa 0.25 mm - - -
1787998598 16.11° C 90% 1020.7 hPa 0.25 mm - - -
1787998298 16.11° C 89% 1020.7 hPa 0.25 mm - - -
1787997998 16.11° C 89% 1020.9 hPa 0.25 mm - - -
1787997698 16.11° C 90% 1020.4 hPa 0.51 mm - - -
1787997398 16.11° C 89% 1020.1 hPa 1.78 mm - - -
1787997098 16.11° C 89% 1020.1 hPa 2.29 mm - - -
1787996798 16.11° C 89% 1019.9 hPa 2.54 mm - - -
1787996549 16.11° C 89% 1020.1 hPa 2.54 mm - - -
1787996198 16.11° C 89% 1020.1 hPa 2.54 mm - - -
1787995898 16.67° C 88% 1019.9 hPa 2.54 mm - - -
1787995598 16.67° C 88% 1019.6 hPa 2.29 mm - - -
1787995298 16.67° C 88% 1020.3 hPa 2.29 mm - - -
1787994998 16.67° C 87% 1020.7 hPa 2.29 mm - - -
1787994698 16.67° C 86% 1020.8 hPa 2.29 mm - - -
1787994398 16.67° C 86% 1020.7 hPa 2.29 mm - - -
1787994098 16.67° C 85% 1020.6 hPa 2.29 mm - - -
1787993798 17.22° C 84% 1021 hPa 1.78 mm - - -
1787993498 16.67° C 84% 1021.1 hPa 0.25 mm - - -
1787993203 16.67° C 84% 1021.1 hPa 0 mm - - -
1787992898 16.67° C 86% 1020.8 hPa 0 mm - - -
1787992598 16.67° C 86% 1020.6 hPa 0 mm - - -
1787992298 16.67° C 87% 1020.5 hPa 0 mm - - -
1787991998 16.11° C 89% 1020.6 hPa 0 mm - - -

* Rain latest hour (hover to see other rain measurements)
** Current wind speed in m/s (hover to see current wind gust speed)